W4RJF Weather Reports


Display with metric or nautical units.
time (UTC)temp
F
wind
direction
speed
MPH
gust
MPH
rain 1hr
in
rain 24hr
in
rain mn
in
humidity
%
barometer
mb
20260505195511 81 175 1.0 6.0 0.00 0.00 0.00 41 1015.1
20260505195012 81 153 2.0 8.0 0.00 0.00 0.00 40 1015.3
20260505194008 80 203 1.0 6.0 0.00 0.00 0.00 42 1015.5
20260505193023 81 215 0.0 5.0 0.00 0.00 0.00 41 1015.6
20260505192511 81 211 1.0 6.0 0.00 0.00 0.00 41 1015.6
20260505192008 82 184 3.0 6.0 0.00 0.00 0.00 41 1015.7
20260505191526 81 251 1.0 5.0 0.00 0.00 0.00 41 1015.8
20260505191009 80 190 1.0 4.0 0.00 0.00 0.00 42 1015.9
20260505190507 80 179 1.0 4.0 0.00 0.00 0.00 1016.1
20260505190037 81 168 2.0 4.0 0.00 0.00 0.00 42 1016.0
20260505185516 81 150 0.0 5.0 0.00 0.00 0.00 42 1016.1
20260505185007 81 181 2.0 6.0 0.00 0.00 0.00 42 1016.2
20260505184526 80 192 2.0 6.0 0.00 0.00 0.00 42 1016.2
20260505184009 81 327 1.0 6.0 0.00 0.00 0.00 40 1016.3
20260505183502 81 177 2.0 6.0 0.00 0.00 0.00 41 1016.4
20260505182502 80 178 1.0 5.0 0.00 0.00 0.00 43 1016.6
20260505182003 79 181 1.0 4.0 0.00 0.00 0.00 43 1016.6
20260505181509 80 164 1.0 4.0 0.00 0.00 0.00 43 1016.5
20260505181012 80 240 0.0 4.0 0.00 0.00 0.00 45 1016.6
20260505180504 79 184 1.0 6.0 0.00 0.00 0.00 42 1016.6
20260505180021 79 197 2.0 6.0 0.00 0.00 0.00 42 1016.7
20260505175504 79 176 2.0 6.0 0.00 0.00 0.00 43 1016.6
20260505175005 78 286 1.0 6.0 0.00 0.00 0.00 44 1016.6
20260505174521 78 261 1.0 6.0 0.00 0.00 0.00 48 1016.6
20260505174009 78 254 1.0 6.0 0.00 0.00 0.00 45 1016.7
20260505173507 78 193 0.0 6.0 0.00 0.00 0.00 47 1016.8
20260505173022 78 261 1.0 6.0 0.00 0.00 0.00 45 1016.8
20260505172502 77 178 2.0 8.0 0.00 0.00 0.00 46 1016.8
20260505172002 77 182 1.0 8.0 0.00 0.00 0.00 46 1016.9
20260505171004 76 209 3.0 5.0 0.00 0.00 0.00 47 1017.0
20260505170503 76 207 0.0 3.0 0.00 0.00 0.00 51 1016.9
20260505165504 76 162 1.0 4.0 0.00 0.00 0.00 51 1017.1
20260505165004 75 201 1.0 4.0 0.00 0.00 0.00 53 1017.3
20260505164520 75 175 2.0 4.0 0.00 0.00 0.00 52 1017.4
20260505164007 75 212 2.0 4.0 0.00 0.00 0.00 51 1017.3
20260505163508 75 209 2.0 5.0 0.00 0.00 0.00 52 1017.3
20260505163020 75 184 2.0 5.0 0.00 0.00 0.00 53 1017.4
20260505162508 74 267 1.0 3.0 0.00 0.00 0.00 53 1017.4
20260505162012 74 240 0.0 3.0 0.00 0.00 0.00 55 1017.4
20260505161524 74 235 0.0 6.0 0.00 0.00 0.00 55 1017.4
20260505161003 73 227 0.0 6.0 0.00 0.00 0.00 56 1017.4
20260505160503 74 198 2.0 5.0 0.00 0.00 0.00 54 1017.5
20260505153023 72 272 0.0 3.0 0.00 0.00 0.00 58 1017.8
20260505152508 72 289 1.0 3.0 0.00 0.00 0.00 58 1017.7
20260505152013 72 173 1.0 3.0 0.00 0.00 0.00 58 1017.8
20260505151528 71 279 1.0 3.0 0.00 0.00 0.00 59 1017.8
20260505151007 71 282 0.0 5.0 0.00 0.00 0.00 60 1017.9
20260505150507 71 191 2.0 5.0 0.00 0.00 0.00 60 1018.0
20260505140510 67 218 0.0 2.0 0.00 0.00 0.00 68 1017.7
20260505125011 61 209 0.0 2.0 0.00 0.00 0.00 76 1017.8
20260505124525 60 210 0.0 2.0 0.00 0.00 0.00 76 1017.8
20260505124009 60 248 0.0 2.0 0.00 0.00 0.00 78 1017.7
20260505123506 59 191 0.0 2.0 0.00 0.00 0.00 78 1017.8
20260505122506 58 184 0.0 0.0 0.00 0.00 0.00 81 1017.8
20260505122008 57 175 0.0 0.0 0.00 0.00 0.00 81 1017.7
20260505121009 56 175 0.0 0.0 0.00 0.00 0.00 82 1017.7
20260505120507 56 163 0.0 0.0 0.00 0.00 0.00 84 1017.7
20260505120035 55 163 0.0 2.0 0.00 0.00 0.00 84 1017.8
20260505115510 55 163 0.0 2.0 0.00 0.00 0.00 84 1017.7
20260505115009 55 153 0.0 0.0 0.00 0.00 0.00 84 1017.6
20260505114523 54 84 0.0 0.0 0.00 0.00 0.00 85 1017.6
20260505114008 54 84 0.0 0.0 0.00 0.00 0.00 86 1017.6
20260505113511 53 84 0.0 0.0 0.00 0.00 0.00 87 1017.5
20260505113025 53 84 0.0 0.0 0.00 0.00 0.00 88 1017.5
20260505112508 53 184 0.0 0.0 0.00 0.00 0.00 88 1017.4
20260505112006 53 184 0.0 0.0 0.00 0.00 0.00 88 1017.4
20260505111008 52 184 0.0 0.0 0.00 0.00 0.00 89 1017.2
20260505110506 51 184 0.0 0.0 0.00 0.00 0.00 89 1017.2
20260505102010 51 184 0.0 0.0 0.00 0.00 0.00 87 1016.7
20260505101011 51 184 0.0 0.0 0.00 0.00 0.00 87 1016.6
20260505100509 51 184 0.0 0.0 0.00 0.00 0.00 87 1016.4
20260505100029 51 184 0.0 0.0 0.00 0.00 0.00 87 1016.4
20260505095507 51 184 0.0 0.0 0.00 0.00 0.00 86 1016.4
20260505095008 51 184 0.0 0.0 0.00 0.00 0.00 86 1016.4
20260505094506 52 184 0.0 0.0 0.00 0.00 0.00 86 1016.4
20260505094004 52 184 0.0 0.0 0.00 0.00 0.00 86 1016.4
20260505093504 52 184 0.0 0.0 0.00 0.00 0.00 86 1016.4
20260505093012 52 184 0.0 0.0 0.00 0.00 0.00 86 1016.4
20260505092504 52 184 0.0 0.0 0.00 0.00 0.00 86 1016.3
20260505092004 52 184 0.0 0.0 0.00 0.00 0.00 85 1016.4
20260505091519 52 184 0.0 0.0 0.00 0.00 0.00 85 1016.3
20260505091004 52 184 0.0 0.0 0.00 0.00 0.00 84 1016.3
20260505090506 52 184 0.0 0.0 0.00 0.00 0.00 84 1016.4
20260505090019 52 184 0.0 0.0 0.00 0.00 0.00 83 1016.4
20260505085507 52 184 0.0 0.0 0.00 0.00 0.00 83 1016.2
20260505085009 53 184 0.0 0.0 0.00 0.00 0.00 83 1016.3
20260505084540 53 184 0.0 0.0 0.00 0.00 0.00 82 1016.2
20260505084003 53 184 0.0 0.0 0.00 0.00 0.00 81 1016.3
20260505083504 54 184 0.0 0.0 0.00 0.00 0.00 80 1016.3
20260505083017 54 184 0.0 0.0 0.00 0.00 0.00 80 1016.3
20260505082506 54 184 0.0 0.0 0.00 0.00 0.00 80 1016.2
20260505082004 54 184 0.0 0.0 0.00 0.00 0.00 80 1016.2
20260505081516 55 184 0.0 0.0 0.00 0.00 0.00 79 1016.1
20260505081009 55 184 0.0 0.0 0.00 0.00 0.00 79 1016.0
20260505080504 55 184 0.0 0.0 0.00 0.00 0.00 78 1015.9
20260505080027 56 184 0.0 0.0 0.00 0.00 0.00 77 1015.9
20260505075505 56 184 0.0 0.0 0.00 0.00 0.00 77 1015.9
20260505075007 56 184 0.0 0.0 0.00 0.00 0.00 77 1015.9
20260505074523 56 184 0.0 0.0 0.00 0.00 0.00 77 1015.9
20260505074007 56 184 0.0 0.0 0.00 0.00 0.00 76 1015.9
20260505073508 56 184 0.0 0.0 0.00 0.00 0.00 76 1015.9
20260505073035 56 184 0.0 0.0 0.00 0.00 0.00 76 1016.0
20260505072503 56 184 0.0 0.0 0.00 0.00 0.00 77 1015.9
20260505072004 57 184 0.0 0.0 0.00 0.00 0.00 75 1016.0
20260505071509 57 184 0.0 2.0 0.00 0.00 0.00 75 1015.9
20260505071005 57 185 0.0 2.0 0.00 0.00 0.00 74 1015.8
20260505070505 57 185 0.0 0.0 0.00 0.00 0.00 74 1015.8
20260505070016 57 185 0.0 0.0 0.00 0.00 0.00 74 1015.8
20260505065504 57 185 0.0 0.0 0.00 0.00 0.00 74 1015.8
20260505065003 57 185 0.0 0.0 0.00 0.00 0.00 73 1015.8
20260505064519 57 183 0.0 0.0 0.00 0.00 0.00 73 1015.9
20260505064007 58 183 0.0 0.0 0.00 0.00 0.00 73 1015.9
20260505063508 58 183 0.0 0.0 0.00 0.00 0.00 72 1015.9
20260505063029 58 183 0.0 0.0 0.00 0.00 0.00 72 1015.8
20260505062509 58 182 0.0 0.0 0.00 0.00 0.00 71 1015.8
20260505062009 58 182 0.0 2.0 0.00 0.00 0.00 71 1015.9
20260505061517 59 182 0.0 2.0 0.00 0.00 0.00 71 1015.8
20260505061003 59 179 0.0 2.0 0.00 0.00 0.00 71 1015.9
20260505060503 59 188 0.0 2.0 0.00 0.00 0.00 71 1015.9
20260505060011 59 188 0.0 2.0 0.00 0.00 0.00 70 1015.9
20260505055505 59 190 0.0 2.0 0.00 0.00 0.00 70 1015.9
20260505055005 59 182 0.0 2.0 0.00 0.00 0.00 70 1015.9
20260505054518 59 202 0.0 2.0 0.00 0.00 0.00 70 1016.0
20260505054012 60 196 0.0 2.0 0.00 0.00 0.00 69 1016.0
20260505053508 60 197 0.0 2.0 0.00 0.00 0.00 69 1016.1
20260505053023 60 184 1.0 2.0 0.00 0.00 0.00 69 1016.1
20260505052508 60 192 0.0 2.0 0.00 0.00 0.00 68 1016.2
20260505052008 60 202 0.0 2.0 0.00 0.00 0.00 68 1016.2
20260505051524 60 202 0.0 2.0 0.00 0.00 0.00 68 1016.2
20260505051010 61 194 0.0 2.0 0.00 0.00 0.00 67 1016.3
20260505050507 61 198 0.0 2.0 0.00 0.00 0.00 67 1016.3
20260505041522 62 190 0.0 2.0 0.00 0.00 0.00 65 1016.2
20260505041009 62 192 0.0 3.0 0.00 0.00 0.00 65 1016.2
20260505040512 62 192 0.0 3.0 0.00 0.00 0.00 64 1016.3
20260505040027 63 219 0.0 3.0 0.00 0.00 0.00 64 1016.3
20260505035509 63 188 1.0 4.0 0.00 0.00 0.00 63 1016.3
20260505035002 63 186 2.0 4.0 0.00 0.00 0.00 63 1016.2
20260505034516 63 188 1.0 3.0 0.00 0.00 0.00 63 1016.2
20260505034008 63 192 1.0 3.0 0.00 0.00 0.00 62 1016.1
20260505033505 64 192 1.0 4.0 0.00 0.00 0.00 62 1016.1
20260505033019 64 219 1.0 5.0 0.00 0.00 0.00 62 1016.1
20260505032510 64 198 1.0 5.0 0.00 0.00 0.00 61 1016.1
20260505032011 64 199 2.0 5.0 0.00 0.00 0.00 61 1016.0
20260505031523 64 190 1.0 7.0 0.00 0.00 0.00 61 1016.1
20260505031007 65 194 1.0 7.0 0.00 0.00 0.00 60 1016.1
20260505030509 65 201 3.0 7.0 0.00 0.00 0.00 60 1016.1
20260505030024 65 203 1.0 4.0 0.00 0.00 0.00 60 1016.1
20260505025515 65 188 2.0 5.0 0.00 0.00 0.00 60 1016.1
20260505025012 65 186 1.0 5.0 0.00 0.00 0.00 60 1016.0
20260505024527 65 182 1.0 5.0 0.00 0.00 0.00 60 1016.0
20260505024007 65 171 1.0 5.0 0.00 0.00 0.00 60 1016.0
20260505023505 65 200 0.0 5.0 0.00 0.00 0.00 60 1016.0
20260505023021 66 207 1.0 5.0 0.00 0.00 0.00 60 1015.9
20260505022506 66 205 2.0 5.0 0.00 0.00 0.00 59 1015.9
20260505022005 66 214 1.0 6.0 0.00 0.00 0.00 59 1015.9
20260505021521 66 196 1.0 6.0 0.00 0.00 0.00 59 1015.9
20260505021008 67 219 1.0 6.0 0.00 0.00 0.00 59 1015.8
20260505020506 67 178 1.0 4.0 0.00 0.00 0.00 59 1015.8
20260505020030 67 191 1.0 4.0 0.00 0.00 0.00 58 1015.8
20260505015509 67 180 1.0 5.0 0.00 0.00 0.00 58 1015.7
20260505015003 67 227 1.0 6.0 0.00 0.00 0.00 58 1015.7
20260505014522 67 198 1.0 6.0 0.00 0.00 0.00 58 1015.6
20260505014007 68 235 1.0 5.0 0.00 0.00 0.00 57 1015.6
20260505013502 68 199 2.0 5.0 0.00 0.00 0.00 56 1015.6
20260505013015 68 182 2.0 5.0 0.00 0.00 0.00 55 1015.3
20260505012503 68 208 1.0 3.0 0.00 0.00 0.00 52 1015.2
20260505012006 68 194 1.0 3.0 0.00 0.00 0.00 50 1015.1
20260505011530 68 180 1.0 7.0 0.00 0.00 0.00 48 1015.1
20260505011007 69 198 0.0 7.0 0.00 0.00 0.00 48 1015.0
20260505010506 68 205 1.0 2.0 0.00 0.00 0.00 47 1015.0
20260505010022 68 191 0.0 2.0 0.00 0.00 0.00 47 1014.9
20260505005508 69 201 0.0 2.0 0.00 0.00 0.00 47 1014.7
20260505005008 69 193 0.0 2.0 0.00 0.00 0.00 46 1014.6
20260505004538 69 203 0.0 2.0 0.00 0.00 0.00 45 1014.5
20260505004003 69 192 1.0 2.0 0.00 0.00 0.00 45 1014.5
20260505003505 69 203 0.0 2.0 0.00 0.00 0.00 45 1014.4
20260505003018 69 195 0.0 2.0 0.00 0.00 0.00 44 1014.3
20260505002505 69 196 0.0 2.0 0.00 0.00 0.00 44 1014.3
20260505002005 70 193 0.0 2.0 0.00 0.00 0.00 46 1014.4
20260505001520 70 193 0.0 2.0 0.00 0.00 0.00 43 1014.4
20260505001008 71 202 0.0 0.0 0.00 0.00 0.00 42 1014.5
20260505000506 71 202 0.0 1.0 0.00 0.00 0.00 42 1014.4
20260505000029 71 202 0.0 1.0 0.00 0.00 0.00 42 1014.4
20260504235506 72 202 0.0 2.0 0.00 0.00 0.00 41 1014.4
20260504235008 72 198 0.0 2.0 0.00 0.00 0.00 41 1014.3
20260504234523 73 198 0.0 2.0 0.00 0.00 0.00 40 1014.3
20260504234007 73 191 0.0 3.0 0.00 0.00 0.00 39 1014.1
20260504233510 73 196 0.0 3.0 0.00 0.00 0.00 39 1014.1
20260504233008 73 188 1.0 2.0 0.00 0.00 0.00 39 1014.1
20260504232507 74 197 1.0 3.0 0.00 0.00 0.00 39 1014.1
20260504232005 74 202 0.0 4.0 0.00 0.00 0.00 39 1014.0
20260504231517 74 190 1.0 4.0 0.00 0.00 0.00 38 1014.0
20260504231005 74 194 1.0 2.0 0.00 0.00 0.00 38 1014.0
20260504230509 75 197 0.0 4.0 0.00 0.00 0.00 38 1014.0
20260504230020 75 198 0.0 4.0 0.00 0.00 0.00 37 1013.9
20260504225507 75 260 0.0 4.0 0.00 0.00 0.00 38 1013.9
20260504225008 75 198 0.0 4.0 0.00 0.00 0.00 37 1013.9
20260504224521 75 198 2.0 4.0 0.00 0.00 0.00 36 1013.9
20260504224007 76 188 1.0 4.0 0.00 0.00 0.00 36 1013.9
20260504223029 76 206 1.0 3.0 0.00 0.00 0.00 35 1013.9
20260504222512 76 200 1.0 3.0 0.00 0.00 0.00 35 1013.8
20260504222009 76 201 0.0 4.0 0.00 0.00 0.00 36 1013.9
20260504221515 77 186 1.0 4.0 0.00 0.00 0.00 35 1013.8
20260504221005 77 223 0.0 4.0 0.00 0.00 0.00 35 1013.8
20260504220504 77 201 0.0 4.0 0.00 0.00 0.00 36 1013.8
20260504220016 77 197 1.0 4.0 0.00 0.00 0.00 35 1013.8
20260504215507 77 214 1.0 4.0 0.00 0.00 0.00 34 1013.9
20260504215009 78 198 0.0 3.0 0.00 0.00 0.00 34 1013.9
20260504214523 77 233 0.0 4.0 0.00 0.00 0.00 34 1013.8
20260504214014 77 182 0.0 4.0 0.00 0.00 0.00 33 1013.8
20260504213507 77 195 1.0 3.0 0.00 0.00 0.00 32 1013.8
20260504213027 78 207 1.0 3.0 0.00 0.00 0.00 33 1013.9
20260504212509 78 215 0.0 5.0 0.00 0.00 0.00 30 1013.9
20260504212009 78 183 0.0 5.0 0.00 0.00 0.00 31 1013.9
20260504211534 79 223 2.0 5.0 0.00 0.00 0.00 29 1013.9
20260504211007 80 178 1.0 6.0 0.00 0.00 0.00 29 1013.9
20260504210504 80 196 2.0 6.0 0.00 0.00 0.00 29 1013.9
20260504210017 80 184 2.0 5.0 0.00 0.00 0.00 29 1013.9
20260504205508 80 186 0.0 4.0 0.00 0.00 0.00 30 1013.9
20260504205007 79 196 1.0 3.0 0.00 0.00 0.00 31 1013.9
20260504204520 80 281 1.0 4.0 0.00 0.00 0.00 30 1014.0
20260504204007 80 352 0.0 4.0 0.00 0.00 0.00 29 1013.9
20260504203511 80 201 1.0 5.0 0.00 0.00 0.00 29 1014.0
20260504203021 81 159 1.0 4.0 0.00 0.00 0.00 29 1014.0
20260504202506 80 182 1.0 5.0 0.00 0.00 0.00 28 1014.1
20260504202011 80 227 1.0 6.0 0.00 0.00 0.00 27 1014.1
20260504201529 80 218 1.0 6.0 0.00 0.00 0.00 28 1014.2
20260504201006 79 238 1.0 3.0 0.00 0.00 0.00 31 1014.3
20260504200507 80 198 1.0 6.0 0.00 0.00 0.00 29 1014.3
20260504200026 80 173 3.0 6.0 0.00 0.00 0.00 29 1014.3